• In Austria
  • List of Countries
  • For 7 days
  • Water Temperature
  • Satellite Maps
  • Weather Map
  • News
  • Weather Widgets
  • user-avatar
    Login

    Hourly Weather Elbasan

    Today, 22 October, Sunday

    Time Temperature Precipitation Wind Pressure Humidity
    00:00 +14°C° 0 mm 1 mps 736 mmHg 84%
    01:00 +14°C° 0 mm 1 mps 736 mmHg 82%
    02:00 +14°C° 0 mm 1 mps 736 mmHg 80%
    03:00 +13°C° 0 mm 1 mps 736 mmHg 78%
    04:00 +13°C° 0 mm 1 mps 736 mmHg 77%
    05:00 +14°C° 0 mm 1 mps 736 mmHg 73%
    06:00 +14°C° 0 mm 1 mps 736 mmHg 70%
    07:00 +15°C° 0 mm 1 mps 736 mmHg 64%
    08:00 +18°C° 0 mm 1 mps 736 mmHg 59%
    09:00 +20°C° 0 mm 1 mps 736 mmHg 54%
    10:00 +22°C° 0 mm 1 mps 736 mmHg 49%
    11:00 +23°C° 0 mm 2 mps 735 mmHg 49%
    12:00 +23°C° 0 mm 2 mps 735 mmHg 49%
    13:00 +24°C° 0 mm 3 mps 735 mmHg 49%
    14:00 +23°C° 0 mm 2 mps 734 mmHg 54%
    15:00 +21°C° 0 mm 2 mps 734 mmHg 58%
    16:00 +21°C° 0 mm 2 mps 734 mmHg 62%
    17:00 +19°C° 0 mm 2 mps 733 mmHg 69%
    18:00 +19°C° 0 mm 1 mps 733 mmHg 76%
    19:00 +16°C° 0 mm 1 mps 733 mmHg 83%
    20:00 +16°C° 0 mm 1 mps 733 mmHg 82%
    21:00 +16°C° 0 mm 2 mps 733 mmHg 81%
    22:00 +16°C° 0 mm 2 mps 732 mmHg 80%
    23:00 +16°C° 0.1 mm 2 mps 732 mmHg 79%

    Tomorrow, 23 October, Monday

    Time Temperature Precipitation Wind Pressure Humidity
    00:00 +16°C° 0.1 mm 3 mps 731 mmHg 78%
    01:00 +16°C° 0.1 mm 3 mps 731 mmHg 76%
    02:00 +16°C° 0.5 mm 3 mps 730 mmHg 76%
    03:00 +16°C° 0.5 mm 3 mps 730 mmHg 76%
    04:00 +16°C° 0.5 mm 3 mps 729 mmHg 75%
    05:00 +16°C° 0.3 mm 3 mps 729 mmHg 76%
    06:00 +16°C° 0.3 mm 3 mps 729 mmHg 78%
    07:00 +16°C° 0.3 mm 3 mps 728 mmHg 79%
    08:00 +17°C° 0.5 mm 3 mps 728 mmHg 75%
    09:00 +17°C° 0.5 mm 3 mps 728 mmHg 71%
    10:00 +18°C° 0.5 mm 3 mps 728 mmHg 67%
    11:00 +18°C° 1 mm 3 mps 727 mmHg 68%
    12:00 +17°C° 1 mm 3 mps 726 mmHg 70%
    13:00 +16°C° 1 mm 3 mps 726 mmHg 71%
    14:00 +16°C° 0.8 mm 2 mps 726 mmHg 72%
    15:00 +16°C° 0.8 mm 2 mps 725 mmHg 72%
    16:00 +15°C° 0.8 mm 1 mps 725 mmHg 73%
    17:00 +15°C° 0.3 mm 1 mps 725 mmHg 76%
    18:00 +14°C° 0.3 mm 1 mps 725 mmHg 78%
    19:00 +14°C° 0.3 mm 1 mps 725 mmHg 81%
    20:00 +13°C° 0.5 mm 1 mps 725 mmHg 82%
    21:00 +13°C° 0.5 mm 1 mps 725 mmHg 83%
    22:00 +12°C° 0.5 mm 1 mps 725 mmHg 84%
    23:00 +12°C° 0.2 mm 1 mps 725 mmHg 84%

    Day after tomorrow, 24 October, Tuesday

    Time Temperature Precipitation Wind Pressure Humidity
    00:00 +12°C° 0.2 mm 2 mps 725 mmHg 84%
    01:00 +10°C° 0.2 mm 2 mps 725 mmHg 84%
    02:00 +10°C° 0.2 mm 2 mps 725 mmHg 84%
    03:00 +10°C° 0.2 mm 2 mps 725 mmHg 84%
    04:00 +10°C° 0.2 mm 2 mps 725 mmHg 83%
    05:00 +10°C° 0.1 mm 3 mps 725 mmHg 82%
    06:00 +10°C° 0.1 mm 3 mps 726 mmHg 80%
    07:00 +10°C° 0.1 mm 3 mps 726 mmHg 79%
    08:00 +11°C° 0.1 mm 3 mps 726 mmHg 73%
    09:00 +12°C° 0.1 mm 3 mps 726 mmHg 67%
    10:00 +13°C° 0.1 mm 3 mps 727 mmHg 61%
    11:00 +14°C° 0.1 mm 3 mps 727 mmHg 59%
    12:00 +15°C° 0.1 mm 4 mps 727 mmHg 56%
    13:00 +15°C° 0.1 mm 4 mps 727 mmHg 54%
    14:00 +15°C° 0 mm 4 mps 727 mmHg 55%
    15:00 +15°C° 0 mm 4 mps 727 mmHg 57%
    16:00 +14°C° 0 mm 4 mps 727 mmHg 58%
    17:00 +13°C° 0 mm 3 mps 727 mmHg 63%
    18:00 +12°C° 0 mm 3 mps 728 mmHg 67%
    19:00 +11°C° 0 mm 3 mps 728 mmHg 72%
    20:00 +10°C° 0 mm 3 mps 729 mmHg 73%
    21:00 +10°C° 0 mm 3 mps 729 mmHg 75%
    22:00 +10°C° 0 mm 3 mps 730 mmHg 77%
    23:00 +10°C° 0 mm 3 mps 730 mmHg 77%

    25 October, Wednesday

    Time Temperature Precipitation Wind Pressure Humidity
    00:00 +10°C° 0 mm 3 mps 730 mmHg 78%
    01:00 +10°C° 0 mm 3 mps 730 mmHg 79%
    02:00 +10°C° 0 mm 3 mps 730 mmHg 79%
    03:00 +10°C° 0 mm 3 mps 731 mmHg 79%
    04:00 +10°C° 0 mm 3 mps 731 mmHg 79%
    05:00 +10°C° 0.1 mm 3 mps 731 mmHg 79%
    06:00 +11°C° 0.1 mm 3 mps 732 mmHg 78%
    07:00 +11°C° 0.1 mm 3 mps 732 mmHg 77%
    08:00 +13°C° 0 mm 4 mps 733 mmHg 70%
    09:00 +15°C° 0 mm 4 mps 734 mmHg 63%
    10:00 +17°C° 0 mm 5 mps 734 mmHg 55%
    11:00 +19°C° 0 mm 4 mps 735 mmHg 55%
    12:00 +19°C° 0 mm 4 mps 735 mmHg 54%
    13:00 +19°C° 0 mm 4 mps 735 mmHg 53%
    14:00 +19°C° 0 mm 4 mps 736 mmHg 56%
    15:00 +18°C° 0 mm 4 mps 736 mmHg 58%
    16:00 +17°C° 0 mm 3 mps 736 mmHg 61%
    17:00 +16°C° 0 mm 3 mps 737 mmHg 65%
    18:00 +14°C° 0 mm 3 mps 738 mmHg 69%
    19:00 +13°C° 0 mm 3 mps 738 mmHg 73%
    20:00 +13°C° 0 mm 3 mps 739 mmHg 75%
    21:00 +12°C° 0 mm 3 mps 739 mmHg 76%
    22:00 +12°C° 0 mm 3 mps 740 mmHg 78%
    23:00 +11°C° 0 mm 3 mps 740 mmHg 78%

    26 October, Thursday

    Time Temperature Precipitation Wind Pressure Humidity
    00:00 +11°C° 0 mm 3 mps 740 mmHg 79%
    01:00 +11°C° 0 mm 3 mps 740 mmHg 79%
    02:00 +12°C° 0 mm 2 mps 740 mmHg 79%
    03:00 +12°C° 0 mm 2 mps 741 mmHg 79%
    04:00 +10°C° 0 mm 2 mps 741 mmHg 78%
    05:00 +12°C° 0 mm 2 mps 741 mmHg 76%
    06:00 +12°C° 0 mm 2 mps 741 mmHg 75%
    07:00 +12°C° 0 mm 2 mps 741 mmHg 73%
    08:00 +15°C° 0 mm 2 mps 742 mmHg 64%
    09:00 +18°C° 0 mm 2 mps 742 mmHg 55%
    10:00 +21°C° 0 mm 1 mps 742 mmHg 46%
    11:00 +21°C° 0 mm 2 mps 741 mmHg 43%
    12:00 +23°C° 0 mm 2 mps 741 mmHg 40%
    13:00 +24°C° 0 mm 2 mps 741 mmHg 38%
    14:00 +23°C° 0 mm 2 mps 741 mmHg 42%
    15:00 +21°C° 0 mm 2 mps 741 mmHg 47%
    16:00 +20°C° 0 mm 2 mps 740 mmHg 51%
    17:00 +18°C° 0 mm 2 mps 741 mmHg 55%
    18:00 +17°C° 0 mm 2 mps 741 mmHg 59%
    19:00 +15°C° 0 mm 1 mps 741 mmHg 63%
    20:00 +15°C° 0 mm 1 mps 741 mmHg 63%
    21:00 +15°C° 0 mm 1 mps 741 mmHg 62%
    22:00 +15°C° 0 mm 1 mps 741 mmHg 61%
    23:00 +14°C° 0 mm 1 mps 741 mmHg 60%

    27 October, Friday

    Time Temperature Precipitation Wind Pressure Humidity
    00:00 +14°C° 0 mm 1 mps 741 mmHg 60%
    01:00 +14°C° 0 mm 1 mps 741 mmHg 60%
    02:00 +14°C° 0 mm 1 mps 740 mmHg 60%
    03:00 +14°C° 0 mm 1 mps 740 mmHg 60%
    04:00 +14°C° 0 mm 1 mps 740 mmHg 59%
    05:00 +14°C° 0 mm 1 mps 740 mmHg 59%
    06:00 +14°C° 0 mm 1 mps 740 mmHg 58%
    07:00 +15°C° 0 mm 1 mps 740 mmHg 57%
    08:00 +18°C° 0 mm 1 mps 740 mmHg 50%
    09:00 +21°C° 0 mm 1 mps 739 mmHg 44%
    10:00 +21°C° 0 mm 0 mps 739 mmHg 37%
    11:00 +24°C° 0 mm 1 mps 739 mmHg 36%
    12:00 +24°C° 0 mm 1 mps 738 mmHg 35%
    13:00 +25°C° 0 mm 2 mps 738 mmHg 34%
    14:00 +24°C° 0 mm 2 mps 737 mmHg 39%
    15:00 +23°C° 0 mm 2 mps 737 mmHg 44%
    16:00 +21°C° 0 mm 1 mps 736 mmHg 49%
    17:00 +20°C° 0 mm 1 mps 736 mmHg 54%
    18:00 +18°C° 0 mm 1 mps 735 mmHg 59%
    19:00 +16°C° 0 mm 1 mps 735 mmHg 64%
    20:00 +15°C° 0 mm 1 mps 735 mmHg 64%
    21:00 +15°C° 0 mm 1 mps 734 mmHg 64%
    22:00 +15°C° 0 mm 1 mps 734 mmHg 64%
    23:00 +14°C° 0 mm 2 mps 733 mmHg 64%
    Show more